Regional Weather Roundup
Issued by NWS

Home | Current Version | Previous Version | Text Only | Print | Product List | Glossary On
Versions: 1 2 3 4 5 6 7 8 9 10 11 12 13 14 15 16 17 18 19 20 21 22 23 24 25 26 27 28 29 30 31 32 33 34 35 36 37 38 39 40 41 42 43 44 45 46 47 48 49 50
000
ASUS43 KLMK 300302
RWRKY
KENTUCKY REGIONAL WEATHER ROUNDUP
NATIONAL WEATHER SERVICE LOUISVILLE KY
1100 PM EDT FRI AUG 29 2014

NOTE "FAIR" INDICATES FEW OR NO CLOUDS BELOW 12,000 FEET
WITH NO SIGNIFICANT WEATHER AND/OR OBSTRUCTIONS TO VISIBILITY.

KYZ001>023-026-027-061>063-070>075-300400-
WESTERN AND SOUTH CENTRAL KENTUCKY

CITY           SKY/WX    TMP DP  RH WIND       PRES   REMARKS
PADUCAH        MOCLDY    82  67  60 S7        29.97R
HENDERSON      CLEAR     75  63  64 S7        29.97S
OWENSBORO      NOT AVBL
HOPKINSVILLE   CLEAR     80  64  57 S5        30.02R
BOWLING GREEN  PTCLDY    77  65  66 S7        30.03R
GLASGOW        CLEAR     71  65  80 CALM      30.04R
$$

KYZ024-025-028>034-038-045-046-053-300400-
NORTH CENTRAL KENTUCKY

CITY           SKY/WX    TMP DP  RH WIND       PRES   REMARKS
LOUISVILLE/SDF MOCLDY    78  65  63 SE6       30.00S
LOUISVILLE/LOU CLEAR     80  63  55 SE3       30.01S
FORT KNOX      CLEAR     72  66  83 S2        30.01S
$$

KYZ035>037-039>044-047>052-055>060-089>105-300400-
NORTHEAST KENTUCKY

CITY           SKY/WX    TMP DP  RH WIND       PRES   REMARKS
LEXINGTON      CLEAR     78  71  79 SE5       30.06R
COVINGTON      PTCLDY    76  68  76 S5        30.03S
FRANKFORT      PTCLDY    73  66  78 CALM      30.03S
$$

KYZ054-064>069-076>088-106>120-300400-
SOUTHEAST KENTUCKY

CITY           SKY/WX    TMP DP  RH WIND       PRES   REMARKS
JACKSON        MOCLDY    75  67  76 CALM      30.10R
LONDON         PTCLDY    74  71  91 CALM      30.10R
SOMERSET       CLEAR     72  70  94 CALM      30.09R
MIDDLESBORO    PTCLDY    73  67  80 CALM      30.12R
MONTICELLO     CLEAR     71  69  93 CALM      30.10R
$$



USA.gov is the U.S. government's official web portal to all federal, state and local government web resources and services.